Regional Weather Roundup
Issued by NWS Sterling, VA

Home | Current Version | Previous Version | Graphics & Text | Print | Product List | Glossary On
Versions: 1 2 3 4 5 6 7 8 9 10 11 12 13 14 15 16 17 18 19 20 21 22 23 24 25 26 27 28 29 30 31 32 33 34 35 36 37 38 39 40 41
000
ASUS41 KLWX 251710
RWRLWX

REGIONAL WEATHER ROUNDUP
NATIONAL WEATHER SERVICE BALTIMORE MD/WASHINGTON DC
1200 PM EST THU DEC 25 2014

Note: "FAIR" indicates few or no clouds below 12,000 feet
with no significant weather and/or obstructions to visibility.
 TC=TEMPERATURE CELSIUS

 * =Non NWS site. Station does not report precipitation (e.g. rain,
    snow, etc.), thunder, or fog.

DCZ001-MDZ009-015-VAZ040>042-051-053>054-251800-
WASHINGTON METRO

CITY           SKY/WX    TMP DP  RH WIND       PRES   REMARKS
WASHINGTON NAT PTSUNNY   54  29  38 W15G25    29.96R
DULLES         PTSUNNY   49  31  49 W17G29    29.94S
ANDREWS AFB    CLOUDY    51  31  45 W15G21    29.94R
FT BELVOIR     PTSUNNY   53  30  42 W15G26    29.96R
QUANTICO       CLOUDY    55  30  38 NW16G25   29.97R
COLLEGE PARK*  CLOUDY    52  32  46 W16G25    29.93S
LEESBURG*      CLOUDY    50  34  53 W15G25    29.96R
GAITHERSBURG*  PTSUNNY   48  30  49 W17G26    29.96S

$$

MDZ006>007-011-014-251800-
BALTIMORE METRO

CITY           SKY/WX    TMP DP  RH WIND       PRES   REMARKS
BWI AIRPORT    PTSUNNY   52  31  44 W15G23    29.92R
MD SCIENCE CTR   N/A     51  28  41 MISG      29.93S
MARTIN STATE   PTSUNNY   54  34  47 W21       29.93R
ANNAPOLIS      PTSUNNY   51  27  39 W21G33    29.93R
FORT MEADE*    PTSUNNY   52  32  46 W20G29    29.95R

$$

MDZ012-015-019>023-251800-
MARYLAND EASTERN SHORE

CITY           SKY/WX    TMP DP  RH WIND       PRES   REMARKS
OCEAN CITY     CLOUDY    53  33  46 NW18G26   29.89F
SALISBURY      MOSUNNY   56  30  37 NW25G36   29.91S
BAY BRIDGE AP*   N/A     52  30  43 W20G28    29.94R
CAMBRIDGE*     SUNNY     55  32  41 NW13G25   29.93R
EASTON*        MOSUNNY   55  36  47 NW15G25   29.97R

$$

MDZ017>025-251800-
SOUTHERN MARYLAND

CITY           SKY/WX    TMP DP  RH WIND       PRES   REMARKS
PATUXENT RIVER CLOUDY    53  31  42 NW20G31   29.94R
ST INIGOES     CLOUDY    53  34  48 W14       29.95R
LEONARDTOWN*   MOSUNNY   54  30  40 W15G21    29.96R

$$

MDZ003>005-251800-
NORTH CENTRAL MARYLAND

CITY           SKY/WX    TMP DP  RH WIND       PRES   REMARKS
FREDERICK*     PTSUNNY   54  30  40 W18G29    29.95R
HAGERSTOWN APT CLOUDY    48  31  51 W15G26    29.91R
WESTMINSTER*   PTSUNNY   46  34  61 W14G21    29.90R

$$

MDZ501>502-251800-
WESTERN MARYLAND

CITY           SKY/WX    TMP DP  RH WIND       PRES   REMARKS
OAKLAND*       CLOUDY    32 N/A N/A W20G32    29.92R FOG     WCI  20
CUMBERLAND*    CLOUDY    45  30  57 W16G35    30.01R

$$

VAZ025>031-251800-
SHENANDOAH VALLEY

CITY           SKY/WX    TMP DP  RH WIND       PRES   REMARKS
WINCHESTER*    CLOUDY    50  27  40 W18G32    29.95R
FRONT ROYAL*   FAIR      48  30  49 W14G23    29.95R
LURAY*         PTSUNNY   52  32  46 W12G21    29.96S
NEW MARKET*    FAIR      50  29  45 W12G25    29.96S
STAUNTON*      CLOUDY    49  29  46 W8        30.01S
WAYNESBORO*    FAIR      47  28  49 W8G20     29.98F

$$

WVZ021-048>050-054>055-251800-
EASTERN WEST VIRGINIA PANHANDLE

CITY           SKY/WX    TMP DP  RH WIND       PRES   REMARKS
MARTINSBURG    PTSUNNY   51  30  44 W20G26    29.94R
PETERSBURG*    MOSUNNY   46  27  47 W20G31    30.00R

$$

VAZ036>039-050-251800-
CENTRAL FOOTHILLS

CITY           SKY/WX    TMP DP  RH WIND       PRES   REMARKS
CHARLOTTESVILL SUNNY     52  28  39 NW14G24   29.98R
CULPEPER*      PTSUNNY   54  30  40 W6        29.97R
ORANGE*        MOSUNNY   54  30  40 SW6       29.98S
GORDONSVILLE*  FAIR      53  30  41 W8G18     29.97S
WARRENTON*     PTSUNNY   56  38  49 W8G17     29.95S

$$

VAZ055>057-251800-
NORTH AND CENTRAL PIEDMONT

CITY           SKY/WX    TMP DP  RH WIND       PRES   REMARKS
FREDERICKSBRG* MOSUNNY   56  31  38 W9G20     29.96S
STAFFORD*      MOSUNNY   53  28  37 W13G18    30.00S

$$

NCZ024-NYZ072-PAZ021-071-VAZ022-071-251800-
OTHER REGIONAL OBSERVATIONS

CITY           SKY/WX    TMP DP  RH WIND       PRES   REMARKS
NEW YORK CITY  MOSUNNY   52  28  39 W15G26    29.78S
PHILADELPHIA   PTSUNNY   52  31  44 W25G31    29.87R
PITTSBURGH     FLURRIES  39  32  76 W16G23    29.98S
ROANOKE        MOSUNNY   47  28  47 NW22G35   30.06S
RICHMOND       MOSUNNY   58  33  39 NW16G22   29.98R
RALEIGH        MOSUNNY   55  35  47 W12G20    30.06S

$$

ANZ530>537-251800-
MARINE OBSERVATIONS

STATION/POSITION TIME  TEMP    WIND        PRES
                       AIR SEA DIR/SP/G
                 (UTC) (F)     (DEG/KT/KT) (MB)
THOMAS PT LIGHT  1700   51 43  300/ 27/ 31 1014.1S
BALT KEY BRIDGE  1700   50     280/ 19/ 22 1012.8R
COVE POINT       1700   52     320/ 16/ 24 1013.7R
LEWISETTA        1700   52 44  330/ 12/ 15 1013.8S
SOLOMONS ISLAND  1700      44                N/A
PINEY POINT      1700          330/ 16/ 17   N/A

$$



USA.gov is the U.S. government's official web portal to all federal, state and local government web resources and services.